This demonstration page uses our WeatherBlox Daily Observations layout. Learn more.

Hourly Observations for June 8, 2019

Temp ( °F °C ) Dew Point ( °F °C ) Humidity (%) Winds ( mph kmh ) Pressure ( in mb ) Visibility ( mi km ) Precip ( " mm )
12:15 am 00:15 Clear 69 20.3 60 15.6 75 75 SSE 10 17 29.8 1009 10 16.09344 0 0
12:35 am 00:35 Clear 68 19.8 60 15.7 77 77 SSE 9 15 29.8 1009 10 16.09344 0 0
12:55 am 00:55 Clear 67 19.7 60 15.5 77 77 S 10 17 29.8 1009 10 16.09344 0 0
1:15 am 01:15 Clear 67 19.5 59 15.1 76 76 SSE 10 17 29.8 1009 10 16.09344 0 0
1:35 am 01:35 Clear 68 19.8 59 15 74 74 SSE 12 19 29.8 1009 10 16.09344 0 0
1:55 am 01:55 Clear 67 19.3 59 14.9 76 76 SSW 9 15 29.83 1010 10 16.09344 0 0
2:15 am 02:15 Clear 67 19.5 59 14.8 74 74 S 10 17 29.83 1010 10 16.09344 0 0
2:35 am 02:35 Clear 67 19.7 58 14.7 73 73 S 12 19 29.8 1009 10 16.09344 0 0
2:55 am 02:55 Clear 67 19.3 58 14.7 75 75 SSE 10 17 29.8 1009 10 16.09344 0 0
3:15 am 03:15 Clear 65 18.5 59 14.9 80 80 SSE 13 20 29.77 1008 10 16.09344 0 0
3:35 am 03:35 Clear 65 18.2 59 15 82 82 SSE 12 19 29.8 1009 10 16.09344 0 0
3:55 am 03:55 Clear 66 18.9 58 14.7 77 77 SSE 12 19 29.74 1007 10 16.09344 0 0
4:15 am 04:15 Clear 65 18.5 59 14.8 79 79 S 9 15 29.77 1008 10 16.09344 0 0
4:35 am 04:35 Clear 65 18.1 58 14.7 81 81 S 9 15 29.8 1009 10 16.09344 0 0
4:55 am 04:55 Clear 64 17.6 58 14.6 83 83 S 7 11 29.8 1009 10 16.09344 0 0
5:15 am 05:15 Clear 64 17.5 58 14.6 83 83 SSE 10 17 29.8 1009 10 16.09344 0 0
5:35 am 05:35 Clear 63 17.1 59 14.8 86 86 SSE 7 11 29.8 1009 10 16.09344 0 0
5:55 am 05:55 Clear 63 17 59 14.8 87 87 SSE 9 15 29.8 1009 10 16.09344 0 0
6:15 am 06:15 Sunny 63 17.2 59 14.9 86 86 SSE 12 19 29.8 1009 10 16.09344 0 0
6:35 am 06:35 Sunny 64 17.6 59 15 85 85 SSE 12 19 29.8 1009 10 16.09344 0 0
6:55 am 06:55 Sunny 64 17.8 59 15.1 84 84 SE 12 19 29.8 1009 10 16.09344 0 0
7:15 am 07:15 Sunny 65 18.1 60 15.3 84 84 SSE 9 15 29.8 1009 10 16.09344 0 0
7:35 am 07:35 Sunny 65 18.6 60 15.5 82 82 SSE 7 11 29.77 1008 10 16.09344 0 0
7:55 am 07:55 Sunny 69 20.4 61 15.9 76 76 S 14 22 29.77 1008 10 16.09344 0 0
8:15 am 08:15 Sunny 69 20.7 61 16.1 75 75 S 15 24 29.77 1008 10 16.09344 0 0
8:35 am 08:35 Sunny 70 21 62 16.6 76 76 S 14 22 29.8 1009 10 16.09344 0 0
8:55 am 08:55 Sunny 70 21.2 62 16.7 76 76 S 17 28 29.8 1009 10 16.09344 0 0
9:15 am 09:15 Sunny 72 22.1 63 17.2 74 74 S 18 30 29.8 1009 10 16.09344 0 0
9:35 am 09:35 Sunny 74 23.4 65 18.2 73 73 S 18 30 29.77 1008 10 16.09344 0 0
9:55 am 09:55 Sunny 73 22.7 63 17.3 72 72 S 20 31 29.77 1008 10 16.09344 0 0
10:15 am 10:15 Sunny 73 22.9 64 17.5 72 72 S 16 26 29.77 1008 10 16.09344 0 0
10:35 am 10:35 Sunny 75 24 64 17.7 68 68 SSE 23 37 29.77 1008 10 16.09344 0 0
10:55 am 10:55 Sunny 76 24.7 64 18 66 66 S 24 39 29.77 1008 10 16.09344 0 0
11:15 am 11:15 Sunny 78 25.4 64 18 64 64 S 25 41 29.71 1006 10 16.09344 0 0
11:35 am 11:35 Sunny 78 25.5 64 17.9 63 63 SSE 20 31 29.71 1006 10 16.09344 0 0
11:55 am 11:55 Partly Cloudy 78 25.5 64 18 63 63 SSE 22 35 29.71 1006 10 16.09344 0 0
12:15 pm 12:15 Mostly Cloudy 77 25.1 64 17.6 63 63 SSE 17 28 29.74 1007 10 16.09344 0 0
12:35 pm 12:35 Cloudy 77 25.2 64 17.8 64 64 SSE 21 33 29.74 1007 10 16.09344 0 0
12:55 pm 12:55 Cloudy 78 25.8 65 18.3 63 63 SSE 20 31 29.71 1006 10 16.09344 0 0
1:15 pm 13:15 Cloudy 78 25.5 65 18.2 64 64 SSE 18 30 29.71 1006 10 16.09344 0 0
1:35 pm 13:35 Cloudy 78 25.7 65 18.2 63 63 SSE 20 31 29.71 1006 10 16.09344 0 0
1:55 pm 13:55 Cloudy 78 25.3 65 18.3 65 65 SSE 17 28 29.74 1007 10 16.09344 0 0
2:15 pm 14:15 Cloudy 77 25.2 65 18.3 66 66 SSE 13 20 29.74 1007 10 16.09344 0 0
2:35 pm 14:35 Cloudy 78 25.8 65 18.6 65 65 S 15 24 29.71 1006 10 16.09344 0 0
2:55 pm 14:55 Cloudy 79 26.3 66 18.7 63 63 S 16 26 29.68 1005 10 16.09344 0 0
3:15 pm 15:15 Cloudy 79 26.2 66 18.8 64 64 SSE 14 22 29.68 1005 10 16.09344 0 0
3:35 pm 15:35 Cloudy 79 26.2 66 18.9 64 64 S 15 24 29.68 1005 10 16.09344 0 0
3:55 pm 15:55 Cloudy 80 26.5 66 19.1 64 64 SSE 15 24 29.68 1005 10 16.09344 0 0
4:15 pm 16:15 Mostly Cloudy 80 26.5 66 19.1 64 64 SSE 20 31 29.65 1004 10 16.09344 0 0
4:35 pm 16:35 Partly Cloudy 80 26.8 66 19 62 62 S 18 30 29.65 1004 10 16.09344 0 0
4:55 pm 16:55 Mostly Cloudy 83 28.3 67 19.6 59 59 SSE 20 31 29.65 1004 10 16.09344 0 0
5:15 pm 17:15 Cloudy 80 26.8 66 18.9 62 62 SSE 21 33 29.65 1004 10 16.09344 0 0
5:35 pm 17:35 Cloudy 82 27.9 67 19.5 60 60 S 17 28 29.65 1004 10 16.09344 0 0
5:55 pm 17:55 Cloudy 81 27.4 67 19.4 62 62 SSE 17 28 29.65 1004 10 16.09344 0 0
6:15 pm 18:15 Cloudy 80 26.7 65 18.6 61 61 SSE 13 20 29.62 1003 10 16.09344 0 0
6:35 pm 18:35 Cloudy 80 26.4 65 18.4 62 62 SSE 15 24 29.68 1005 10 16.09344 0 0
6:55 pm 18:55 Mostly Cloudy 80 26.4 65 18.1 60 60 SE 14 22 29.68 1005 10 16.09344 0 0
7:15 pm 19:15 Partly Cloudy 79 26.1 64 18 61 61 SE 12 19 29.68 1005 10 16.09344 0 0
7:35 pm 19:35 Partly Cloudy with Light Rain 78 25.7 64 17.9 62 62 SSE 12 19 29.71 1006 10 16.09344 0 0
7:55 pm 19:55 Mostly Cloudy with Light Rain 67 19.3 61 15.9 81 81 NW 28 44 29.8 1009 10 16.09344 0 0
8:15 pm 20:15 Cloudy with Light Rain 65 18.4 60 15.4 83 83 NW 9 15 29.85 1011 10 16.09344 0 0
8:35 pm 20:35 Cloudy with Rain 65 18.2 61 16 87 87 SE 9 15 29.83 1010 10 16.09344 0.01 0.254
8:55 pm 20:55 Mostly Cloudy with Light Rain 65 18.3 62 16.6 90 90 SE 16 26 29.85 1011 10 16.09344 0.02 0.508
9:15 pm 21:15 Partly Cloudy 64 17.6 62 16.4 93 93 SSE 9 15 29.83 1010 10 16.09344 0 0
9:35 pm 21:35 Clear 63 17.3 62 16.5 95 95 NW 9 15 29.85 1011 10 16.09344 0 0
9:55 pm 21:55 Clear 63 17.4 62 16.5 94 94 N 16 26 29.85 1011 10 16.09344 0 0
10:15 pm 22:15 Clear 63 17.1 62 16.5 96 96 N 9 15 29.88 1012 10 16.09344 0 0
10:35 pm 22:35 Mostly Cloudy 63 17.4 62 16.9 97 97 N 6 9 29.91 1013 10 16.09344 0 0
10:55 pm 22:55 Mostly Cloudy 64 17.7 62 16.8 95 95 NE 12 19 29.91 1013 10 16.09344 0 0
11:15 pm 23:15 Clear 63 17.4 61 16.2 93 93 NE 13 20 29.94 1014 10 16.09344 0 0
11:35 pm 23:35 Mostly Cloudy 62 16.5 60 15.5 94 94 NNE 17 28 29.94 1014 10 16.09344 0 0
11:55 pm 23:55 Cloudy with Light Rain 61 16.1 60 15.3 95 95 N 15 24 29.97 1015 10 16.09344 0 0

Powered by AerisWeather